Pontiac, MI

4:56 AM EDT on July 24, 2017 (GMT -0400)
Oakland County International

Weather History for KPTK - October, 2012

Change the Weather History Date:

Wednesday, October 31, 2012

  Actual Average Record
Temperature  
Mean Temperature 37 °F -  
Max Temperature 41 °F 51 °F 70 °F (2003)
Min Temperature 35 °F 36 °F 28 °F (2002)
Degree Days  
Heating Degree Days 28    
Moisture  
Dew Point 36 °F    
Average Humidity 93    
Maximum Humidity 100    
Minimum Humidity 83    
Precipitation  
Precipitation 0.00 in - - ()
Sea Level Pressure  
Sea Level Pressure 29.57 in    
Wind  
Wind Speed 16 mph (NW)    
Max Wind Speed 20 mph    
Max Gust Speed 26 mph    
Visibility 8 miles    
Events      
Averages and records for this station are not official NWS values.
T = Trace of Precipitation, MM = Missing Value Source: NWS Daily Summary

Daily Weather History Graph

Daily Weather History Graph

Search for Another Location

Airport or City:

Trip Planner

Search our weather history database for the weather conditions in past years. The results will help you decide how hot, cold, wet, or windy it might be!

Date:

Astronomy

Oct. 31, 2012 Rise Set
Actual Time 8:06 AM EDT 6:27 PM EDT
Civil Twilight 7:37 AM EDT 6:56 PM EDT
Nautical Twilight 7:04 AM EDT 7:29 PM EDT
Astronomical Twilight 6:31 AM EDT 8:02 PM EDT
Moon 7:34 PM EDT (10/31) 9:49 AM EDT (10/31)
Length of Visible Light 11h 18m
Length of Day
10h 20m
Full, 97% of the Moon is Illuminated
Oct 31
Full
Nov 6
Last Quarter
Nov 13
New
Nov 20
First Quarter
Nov 28
Full

Hourly Weather History & Observations

Time (EDT) Temp. Windchill Dew Point Humidity Pressure Visibility Wind Dir Wind Speed Gust Speed Precip Events Conditions
12:00 AM 35.6 °F 24.8 °F 35.6 °F 100% 29.48 in 3.0 mi NW 19.6 mph 24.2 mph 0.00 in   Light Drizzle
12:53 AM 36.0 °F 25.6 °F 36.0 °F 100% 29.50 in 3.0 mi NW 18.4 mph - 0.00 in   Overcast
1:53 AM 36.0 °F 25.6 °F 36.0 °F 100% 29.49 in 5.0 mi NW 18.4 mph 26.5 mph 0.00 in   Overcast
2:53 AM 36.0 °F 25.6 °F 36.0 °F 100% 29.50 in 4.0 mi NW 18.4 mph 25.3 mph N/A   Overcast
3:53 AM 35.1 °F 24.5 °F 35.1 °F 100% 29.51 in 5.0 mi NW 18.4 mph 23.0 mph N/A   Overcast
4:53 AM 36.0 °F 26.3 °F 36.0 °F 100% 29.52 in 10.0 mi NW 16.1 mph 25.3 mph N/A   Overcast
5:53 AM 35.1 °F 24.8 °F 35.1 °F 100% 29.53 in 3.0 mi NW 17.3 mph - N/A   Overcast
6:53 AM 35.1 °F 25.9 °F 35.1 °F 100% 29.54 in 4.0 mi NW 13.8 mph - N/A   Overcast
7:53 AM 35.1 °F 25.9 °F 34.0 °F 96% 29.55 in 3.0 mi NW 13.8 mph - N/A   Overcast
8:53 AM 35.1 °F 25.9 °F 34.0 °F 96% 29.57 in 3.0 mi NW 13.8 mph 25.3 mph N/A   Overcast
9:53 AM 36.0 °F 27.5 °F 34.0 °F 93% 29.57 in 10.0 mi WNW 12.7 mph 19.6 mph N/A   Overcast
10:53 AM 36.0 °F 27.5 °F 35.1 °F 97% 29.57 in 10.0 mi NW 12.7 mph - 0.00 in   Overcast
11:53 AM 37.0 °F 28.5 °F 35.1 °F 93% 29.58 in 10.0 mi NW 13.8 mph 21.9 mph N/A   Overcast
12:53 PM 37.9 °F 29.6 °F 36.0 °F 93% 29.58 in 8.0 mi NW 13.8 mph - N/A   Overcast
1:53 PM 39.0 °F 31.0 °F 36.0 °F 89% 29.58 in 10.0 mi NW 13.8 mph 21.9 mph N/A   Overcast
2:00 PM 39.2 °F 31.6 °F 35.6 °F 87% 29.56 in 10.0 mi NW 12.7 mph - N/A   Overcast
2:26 PM 39.2 °F 32.0 °F 37.4 °F 93% 29.56 in 10.0 mi WNW 11.5 mph - N/A   Overcast
2:43 PM 39.2 °F 31.2 °F 35.6 °F 87% 29.57 in 10.0 mi NW 13.8 mph 21.9 mph N/A   Overcast
2:53 PM 39.2 °F 31.6 °F 35.6 °F 87% 29.57 in 10.0 mi NW 12.7 mph - N/A   Overcast
3:53 PM 39.9 °F 32.9 °F 37.9 °F 93% 29.58 in 4.0 mi WNW 11.5 mph - 0.00 in   Overcast
4:03 PM 39.2 °F 31.2 °F 37.4 °F 93% 29.56 in 8.0 mi WNW 13.8 mph - N/A   Overcast
4:53 PM 39.9 °F 32.1 °F 37.9 °F 93% 29.59 in 4.0 mi WNW 13.8 mph - 0.00 in   Light Drizzle
5:31 PM 39.2 °F 30.8 °F 37.4 °F 93% 29.57 in 10.0 mi WNW 15.0 mph - 0.00 in   Light Drizzle
5:44 PM 39.2 °F 30.5 °F 37.4 °F 93% 29.57 in 10.0 mi WNW 16.1 mph 21.9 mph 0.00 in   Overcast
5:53 PM 39.9 °F 32.5 °F 37.9 °F 93% 29.60 in 10.0 mi WNW 12.7 mph 21.9 mph 0.00 in   Overcast
6:53 PM 39.9 °F 31.1 °F 37.0 °F 89% 29.61 in 10.0 mi WNW 17.3 mph 24.2 mph 0.00 in   Light Drizzle
7:02 PM 39.2 °F 29.8 °F 37.4 °F 93% 29.59 in 10.0 mi WNW 18.4 mph 24.2 mph 0.00 in   Overcast
7:53 PM 39.9 °F 31.4 °F 36.0 °F 86% 29.62 in 10.0 mi WNW 16.1 mph 25.3 mph 0.00 in   Overcast
8:09 PM 39.2 °F 32.0 °F 35.6 °F 87% 29.60 in 10.0 mi WNW 11.5 mph - N/A   Overcast
8:53 PM 39.9 °F 32.5 °F 36.0 °F 86% 29.63 in 10.0 mi WNW 12.7 mph 21.9 mph N/A   Overcast
9:10 PM 39.2 °F 31.2 °F 35.6 °F 87% 29.61 in 10.0 mi WNW 13.8 mph - N/A   Overcast
9:53 PM 39.9 °F 30.8 °F 35.1 °F 83% 29.64 in 10.0 mi WNW 18.4 mph - N/A   Overcast
10:53 PM 39.9 °F 30.8 °F 35.1 °F 83% 29.64 in 10.0 mi NW 18.4 mph 25.3 mph N/A   Overcast
11:53 PM 39.0 °F 30.6 °F 35.1 °F 86% 29.65 in 10.0 mi WNW 15.0 mph 21.9 mph N/A   Overcast